ICT,Max TemperatureF,Mean TemperatureF,Min TemperatureF,Max Dew PointF,MeanDew PointF,Min DewpointF,Max Humidity, Mean Humidity, Min Humidity, Max Sea Level PressureIn, Mean Sea Level PressureIn, Min Sea Level PressureIn, Max VisibilityMiles, Mean VisibilityMiles, Min VisibilityMiles, Max Wind SpeedMPH, Mean Wind SpeedMPH, Max Gust SpeedMPH,PrecipitationIn, CloudCover, Events, WindDirDegrees
2012-12-1,91,82,72,77,74,68,100,82,52,29.92,29.84,29.77,7,4,0,8,2,,0.00,4,Fog,80
2012-12-2,92,82,73,77,73,68,100,79,52,29.92,29.86,29.80,7,4,0,7,2,,0.00,5,Fog,180
2012-12-3,88,80,73,77,74,70,100,81,55,29.95,29.87,29.80,7,6,2,5,2,,0.00,7,,322
2012-12-4,91,82,73,79,72,68,100,71,44,29.89,29.81,29.74,7,5,1,5,2,,T,4,,310
2012-12-5,92,80,69,76,71,63,100,73,41,29.95,29.86,29.80,7,4,0,4,2,,0.00,4,Fog,10
2012-12-6,87,78,69,73,68,63,100,69,48,29.95,29.87,29.80,7,6,4,7,2,,0.00,6,,171
2012-12-7,89,78,68,72,67,63,100,66,43,29.95,29.86,29.77,7,6,2,9,2,17,0.00,4,Fog,170
2012-12-8,86,76,67,73,67,63,100,70,46,29.98,29.87,29.80,7,5,0,6,2,,0.00,2,Fog,30
2012-12-9,88,77,66,72,67,61,100,74,40,29.95,29.85,29.77,7,5,0,6,2,,0.00,3,Fog,187
2012-12-10,89,78,66,73,66,61,100,72,40,29.95,29.84,29.77,7,5,0,6,2,,0.00,3,Fog,140
2012-12-11,90,77,64,72,64,57,100,66,33,29.98,29.87,29.80,7,6,1,5,2,,0.00,1,,210
2012-12-12,86,75,64,72,67,63,100,78,48,29.98,29.91,29.86,7,5,1,8,2,,0.00,3,Rain,196
2012-12-13,89,78,66,72,66,61,100,71,40,30.01,29.92,29.86,7,5,0,5,2,,0.00,2,Fog,180
2012-12-14,90,77,64,72,65,57,100,71,35,30.06,29.97,29.89,10,6,0,4,2,,0.00,1,Fog,-1
2012-12-15,89,74,62,70,63,57,100,67,35,30.04,29.94,29.86,7,5,0,4,1,,0.00,2,Fog,-1
2012-12-16,90,74,59,66,59,50,100,65,27,30.04,29.94,29.86,7,5,1,6,2,,0.00,2,,317
2012-12-17,89,72,55,65,56,50,100,60,27,29.99,29.91,29.83,7,5,0,5,1,,0.00,1,Fog,10
2012-12-18,90,74,59,66,58,52,100,57,27,30.04,29.94,29.86,6,6,2,4,2,,0.00,1,,-1
2012-12-19,90,74,59,72,63,59,100,66,38,29.98,29.89,29.80,7,6,2,8,2,,0.00,6,,0
2012-12-20,91,76,62,70,65,59,100,70,38,29.95,29.85,29.77,7,4,0,7,2,,0.00,1,Fog,205
2012-12-21,91,76,62,70,62,54,100,65,31,29.98,29.88,29.80,7,5,0,4,1,,0.00,1,Fog,-1
2012-12-22,90,74,59,68,62,55,100,67,31,29.98,29.89,29.80,7,5,0,4,1,,0.00,1,Fog,-1
2012-12-23,90,76,62,68,63,59,100,64,40,30.04,29.95,29.89,7,6,2,5,1,,0.00,2,,180
2012-12-24,85,72,60,66,60,54,100,63,37,30.06,29.98,29.89,7,6,5,7,2,,0.00,2,,230
2012-12-25,84,72,60,66,60,54,100,66,39,30.01,29.93,29.86,7,6,2,7,2,,0.00,6,,201
2012-12-26,85,74,62,66,62,57,100,71,40,29.98,29.91,29.83,7,5,2,4,2,,0.00,6,,180
2012-12-27,88,74,60,66,61,55,100,68,33,29.98,29.88,29.77,6,5,0,6,2,,0.00,2,Fog,6
2012-12-28,90,74,59,68,62,57,100,64,35,29.95,29.86,29.77,7,5,0,6,1,,0.00,1,Fog,200
2012-12-29,90,75,60,69,61,52,100,64,27,29.95,29.86,29.77,7,5,0,4,1,,0.00,1,Fog,300
2012-12-30,90,75,60,67,62,57,100,61,35,29.95,29.87,29.77,7,6,2,6,2,,0.00,3,,222
2012-12-31,84,73,62,66,55,50,88,52,35,29.98,29.89,29.80,7,6,1,10,4,,0.00,2,,193